Wetterdaten: Sonntag, 29.09.2013
Datum Zeit Temperatur Luftfeuchte Luftdruck Regen Wind Richtung Richtung Taupunkt Windchill Windben
29.09.2013 00:00 11,8 C 95 % 1012,3 hPa 0,0 l/m 2,3 km/h (1 Bft) N-NW 337 11,0 C 12,0 C 0,0 km/h (0 Bft)
29.09.2013 00:05 11,8 C 95 % 1012,1 hPa 0,0 l/m 1,8 km/h (1 Bft) N-NW 337 11,0 C 12,0 C 2,7 km/h (1 Bft)
29.09.2013 00:10 11,8 C 95 % 1012,1 hPa 0,0 l/m 1,4 km/h (1 Bft) N-NW 337 11,0 C 12,0 C 0,0 km/h (0 Bft)
29.09.2013 00:15 11,8 C 95 % 1012,1 hPa 0,0 l/m 2,1 km/h (1 Bft) NW 315 11,0 C 12,0 C 5,8 km/h (2 Bft)
29.09.2013 00:20 11,8 C 95 % 1012,1 hPa 0,0 l/m 2,1 km/h (1 Bft) N-NW 337 11,0 C 12,0 C 2,3 km/h (1 Bft)
29.09.2013 00:25 11,8 C 95 % 1012,1 hPa 0,0 l/m 1,4 km/h (1 Bft) S-SW 202 11,0 C 12,0 C 0,0 km/h (0 Bft)
29.09.2013 00:30 11,8 C 95 % 1012,1 hPa 0,0 l/m 1,1 km/h (1 Bft) N-NW 337 11,0 C 12,0 C 2,6 km/h (1 Bft)
29.09.2013 00:35 11,8 C 95 % 1012,1 hPa 0,0 l/m 0,8 km/h (0 Bft) W-SW 247 11,0 C 12,0 C 2,7 km/h (1 Bft)
29.09.2013 00:40 11,8 C 95 % 1012,1 hPa 0,0 l/m 1,3 km/h (1 Bft) S-SW 202 11,0 C 12,0 C 0,0 km/h (0 Bft)
29.09.2013 00:45 11,8 C 95 % 1012,5 hPa 0,0 l/m 1,0 km/h (0 Bft) W 270 11,0 C 12,0 C 0,0 km/h (0 Bft)
29.09.2013 00:50 11,8 C 95 % 1012,5 hPa 0,0 l/m 0,3 km/h (0 Bft) W-NW 292 11,0 C 12,0 C 0,0 km/h (0 Bft)
29.09.2013 00:55 11,8 C 95 % 1012,5 hPa 0,0 l/m 0,5 km/h (0 Bft) W-NW 292 11,0 C 12,0 C 0,0 km/h (0 Bft)
29.09.2013 01:00 11,8 C 95 % 1012,5 hPa 0,0 l/m 0,2 km/h (0 Bft) NO 45 11,0 C 12,0 C 2,7 km/h (1 Bft)
29.09.2013 01:05 11,8 C 95 % 1012,2 hPa 0,0 l/m 0,3 km/h (0 Bft) W 270 11,0 C 12,0 C 0,0 km/h (0 Bft)
29.09.2013 01:10 11,8 C 95 % 1012,2 hPa 0,0 l/m 0,5 km/h (0 Bft) N-NW 337 11,0 C 12,0 C 0,0 km/h (0 Bft)
29.09.2013 01:15 11,8 C 95 % 1012,2 hPa 0,0 l/m 0,6 km/h (0 Bft) N 360 11,0 C 12,0 C 1,9 km/h (1 Bft)
29.09.2013 01:20 11,8 C 95 % 1012,2 hPa 0,0 l/m 0,6 km/h (0 Bft) N-NW 337 11,0 C 12,0 C 0,0 km/h (0 Bft)
29.09.2013 01:25 11,8 C 95 % 1012,2 hPa 0,0 l/m 0,3 km/h (0 Bft) N-NW 337 11,0 C 12,0 C 2,6 km/h (1 Bft)
29.09.2013 01:30 11,8 C 95 % 1012,2 hPa 0,0 l/m 0,5 km/h (0 Bft) W-NW 292 11,0 C 12,0 C 0,0 km/h (0 Bft)
29.09.2013 01:35 11,8 C 95 % 1012,2 hPa 0,0 l/m 0,8 km/h (0 Bft) N-NW 337 11,0 C 12,0 C 2,4 km/h (1 Bft)
29.09.2013 01:40 11,8 C 95 % 1012,2 hPa 0,0 l/m 0,5 km/h (0 Bft) NW 315 11,0 C 12,0 C 0,0 km/h (0 Bft)
29.09.2013 01:45 11,9 C 96 % 1011,9 hPa 0,0 l/m 0,8 km/h (0 Bft) N-NO 22 11,3 C 12,1 C 0,0 km/h (0 Bft)
29.09.2013 01:50 11,8 C 96 % 1011,9 hPa 0,0 l/m 1,0 km/h (0 Bft) N 360 11,2 C 12,1 C 2,9 km/h (1 Bft)
29.09.2013 01:55 11,8 C 96 % 1011,9 hPa 0,0 l/m 1,3 km/h (1 Bft) W-SW 247 11,2 C 12,0 C 1,6 km/h (1 Bft)
29.09.2013 02:00 11,8 C 96 % 1011,9 hPa 0,0 l/m 1,1 km/h (1 Bft) N 360 11,2 C 12,0 C 1,9 km/h (1 Bft)
29.09.2013 02:05 11,8 C 96 % 1011,9 hPa 0,0 l/m 1,1 km/h (1 Bft) W-NW 292 11,2 C 12,0 C 2,3 km/h (1 Bft)
29.09.2013 02:10 11,8 C 96 % 1011,9 hPa 0,0 l/m 1,4 km/h (1 Bft) W-SW 247 11,2 C 12,0 C 1,6 km/h (1 Bft)
29.09.2013 02:15 11,8 C 96 % 1011,9 hPa 0,0 l/m 1,0 km/h (0 Bft) NW 315 11,2 C 12,0 C 3,1 km/h (1 Bft)
29.09.2013 02:20 11,8 C 96 % 1011,9 hPa 0,0 l/m 1,6 km/h (1 Bft) N 360 11,2 C 12,0 C 4,8 km/h (1 Bft)
29.09.2013 02:25 11,8 C 96 % 1011,9 hPa 0,0 l/m 2,4 km/h (1 Bft) N 360 11,2 C 12,0 C 6,0 km/h (2 Bft)
29.09.2013 02:30 11,8 C 96 % 1011,9 hPa 0,0 l/m 2,4 km/h (1 Bft) W-NW 292 11,2 C 12,0 C 2,1 km/h (1 Bft)
29.09.2013 02:35 11,8 C 96 % 1011,9 hPa 0,0 l/m 2,6 km/h (1 Bft) NW 315 11,2 C 12,0 C 6,3 km/h (2 Bft)
29.09.2013 02:40 11,8 C 96 % 1011,9 hPa 0,0 l/m 2,3 km/h (1 Bft) NW 315 11,2 C 12,0 C 2,3 km/h (1 Bft)
29.09.2013 02:45 11,8 C 96 % 1011,9 hPa 0,0 l/m 1,8 km/h (1 Bft) W-NW 292 11,2 C 12,0 C 2,1 km/h (1 Bft)
29.09.2013 02:50 11,8 C 96 % 1011,9 hPa 0,0 l/m 1,1 km/h (1 Bft) W-SW 247 11,2 C 12,0 C 0,0 km/h (0 Bft)
29.09.2013 02:55 11,8 C 96 % 1011,9 hPa 0,0 l/m 0,8 km/h (0 Bft) N-NW 337 11,2 C 12,0 C 0,0 km/h (0 Bft)
29.09.2013 03:00 11,8 C 96 % 1011,9 hPa 0,0 l/m 1,1 km/h (1 Bft) N-NW 337 11,2 C 12,0 C 1,6 km/h (1 Bft)
29.09.2013 03:05 11,8 C 96 % 1011,9 hPa 0,0 l/m 1,0 km/h (0 Bft) S 180 11,2 C 12,0 C 0,0 km/h (0 Bft)
29.09.2013 03:10 11,8 C 96 % 1011,9 hPa 0,0 l/m 0,8 km/h (0 Bft) W 270 11,2 C 12,0 C 0,0 km/h (0 Bft)
29.09.2013 03:15 11,8 C 96 % 1011,9 hPa 0,0 l/m 0,2 km/h (0 Bft) N-NO 22 11,2 C 12,0 C 0,0 km/h (0 Bft)
29.09.2013 03:20 11,7 C 96 % 1011,9 hPa 0,0 l/m 0,3 km/h (0 Bft) O 90 11,1 C 12,0 C 1,8 km/h (1 Bft)
29.09.2013 03:25 11,7 C 96 % 1011,9 hPa 0,0 l/m 0,8 km/h (0 Bft) N-NW 337 11,1 C 12,0 C 0,0 km/h (0 Bft)
29.09.2013 03:30 11,7 C 96 % 1011,9 hPa 0,0 l/m 1,3 km/h (1 Bft) NO 45 11,1 C 12,0 C 1,6 km/h (1 Bft)
29.09.2013 03:35 11,6 C 96 % 1011,9 hPa 0,0 l/m 1,8 km/h (1 Bft) N 360 11,0 C 11,9 C 5,3 km/h (1 Bft)
29.09.2013 03:40 11,6 C 96 % 1011,9 hPa 0,0 l/m 1,4 km/h (1 Bft) N 360 11,0 C 11,9 C 4,8 km/h (1 Bft)
29.09.2013 03:45 11,6 C 96 % 1011,8 hPa 0,0 l/m 2,4 km/h (1 Bft) W-NW 292 11,0 C 11,8 C 0,0 km/h (0 Bft)
29.09.2013 03:50 11,5 C 96 % 1011,8 hPa 0,0 l/m 1,8 km/h (1 Bft) N-NO 22 10,9 C 11,8 C 0,0 km/h (0 Bft)
29.09.2013 03:55 11,5 C 96 % 1011,8 hPa 0,0 l/m 1,4 km/h (1 Bft) N-NW 337 10,9 C 11,8 C 7,1 km/h (2 Bft)
29.09.2013 04:00 11,5 C 96 % 1011,8 hPa 0,0 l/m 2,7 km/h (1 Bft) N-NW 337 10,9 C 11,8 C 0,0 km/h (0 Bft)
29.09.2013 04:05 11,5 C 96 % 1011,2 hPa 0,0 l/m 3,1 km/h (1 Bft) W-NW 292 10,9 C 11,8 C 6,1 km/h (2 Bft)
29.09.2013 04:10 11,5 C 96 % 1011,2 hPa 0,0 l/m 3,2 km/h (1 Bft) S 180 10,9 C 11,8 C 5,8 km/h (2 Bft)
29.09.2013 04:15 11,5 C 96 % 1011,2 hPa 0,0 l/m 3,7 km/h (1 Bft) N 360 10,9 C 11,8 C 5,5 km/h (1 Bft)
29.09.2013 04:20 11,4 C 96 % 1011,2 hPa 0,0 l/m 3,7 km/h (1 Bft) N-NW 337 10,8 C 11,7 C 5,3 km/h (1 Bft)
29.09.2013 04:25 11,4 C 96 % 1011,0 hPa 0,0 l/m 4,2 km/h (1 Bft) W-NW 292 10,8 C 11,7 C 8,5 km/h (2 Bft)
29.09.2013 04:30 11,4 C 96 % 1011,0 hPa 0,0 l/m 3,7 km/h (1 Bft) NW 315 10,8 C 11,7 C 4,0 km/h (1 Bft)
29.09.2013 04:35 11,4 C 96 % 1011,0 hPa 0,0 l/m 3,4 km/h (1 Bft) N 360 10,8 C 11,6 C 6,1 km/h (2 Bft)
29.09.2013 04:40 11,4 C 96 % 1011,0 hPa 0,0 l/m 3,7 km/h (1 Bft) W-NW 292 10,8 C 11,6 C 3,4 km/h (1 Bft)
29.09.2013 04:45 11,3 C 96 % 1011,2 hPa 0,0 l/m 3,1 km/h (1 Bft) N-NW 337 10,7 C 11,6 C 3,9 km/h (1 Bft)
29.09.2013 04:50 11,1 C 96 % 1011,2 hPa 0,0 l/m 2,4 km/h (1 Bft) N 360 10,5 C 11,5 C 3,2 km/h (1 Bft)
29.09.2013 04:55 11,0 C 96 % 1011,2 hPa 0,0 l/m 2,9 km/h (1 Bft) W 270 10,4 C 11,3 C 2,3 km/h (1 Bft)
29.09.2013 05:00 11,1 C 96 % 1011,2 hPa 0,0 l/m 2,7 km/h (1 Bft) N-NW 337 10,5 C 11,3 C 2,9 km/h (1 Bft)
29.09.2013 05:05 11,0 C 96 % 1011,0 hPa 0,0 l/m 3,2 km/h (1 Bft) N-NW 337 10,4 C 11,3 C 4,8 km/h (1 Bft)
29.09.2013 05:10 10,9 C 96 % 1011,0 hPa 0,0 l/m 2,9 km/h (1 Bft) N-NW 337 10,3 C 11,2 C 2,6 km/h (1 Bft)
29.09.2013 05:15 10,8 C 96 % 1011,0 hPa 0,0 l/m 2,7 km/h (1 Bft) O 90 10,2 C 11,1 C 3,2 km/h (1 Bft)
29.09.2013 05:20 10,8 C 96 % 1011,0 hPa 0,0 l/m 2,9 km/h (1 Bft) NO 45 10,2 C 11,0 C 2,4 km/h (1 Bft)
29.09.2013 05:25 10,7 C 96 % 1010,9 hPa 0,0 l/m 2,3 km/h (1 Bft) SW 225 10,1 C 11,0 C 4,8 km/h (1 Bft)
29.09.2013 05:30 10,7 C 96 % 1010,9 hPa 0,0 l/m 2,4 km/h (1 Bft) N 360 10,1 C 11,0 C 5,8 km/h (2 Bft)
29.09.2013 05:35 10,6 C 96 % 1010,9 hPa 0,0 l/m 2,9 km/h (1 Bft) N-NW 337 10,0 C 10,9 C 6,0 km/h (2 Bft)
29.09.2013 05:40 10,5 C 96 % 1010,9 hPa 0,0 l/m 3,1 km/h (1 Bft) NW 315 9,9 C 10,9 C 2,9 km/h (1 Bft)
29.09.2013 05:45 10,5 C 96 % 1010,6 hPa 0,0 l/m 3,4 km/h (1 Bft) W-NW 292 9,9 C 10,8 C 0,0 km/h (0 Bft)
29.09.2013 05:50 10,4 C 96 % 1010,6 hPa 0,0 l/m 3,5 km/h (1 Bft) W-NW 292 9,8 C 10,7 C 3,9 km/h (1 Bft)
29.09.2013 05:55 10,4 C 96 % 1010,6 hPa 0,0 l/m 3,5 km/h (1 Bft) W-NW 292 9,8 C 10,6 C 4,7 km/h (1 Bft)
29.09.2013 06:00 10,4 C 96 % 1010,6 hPa 0,0 l/m 3,9 km/h (1 Bft) N-NW 337 9,8 C 10,6 C 3,2 km/h (1 Bft)
29.09.2013 06:05 10,3 C 96 % 1010,4 hPa 0,0 l/m 3,9 km/h (1 Bft) W-NW 292 9,7 C 10,6 C 3,7 km/h (1 Bft)
29.09.2013 06:10 10,3 C 96 % 1010,4 hPa 0,0 l/m 3,5 km/h (1 Bft) NO 45 9,7 C 10,6 C 3,5 km/h (1 Bft)
29.09.2013 06:15 10,2 C 96 % 1010,4 hPa 0,0 l/m 3,2 km/h (1 Bft) N-NW 337 9,6 C 10,5 C 5,1 km/h (1 Bft)
29.09.2013 06:20 10,2 C 96 % 1010,4 hPa 0,0 l/m 3,4 km/h (1 Bft) N-NW 337 9,6 C 10,5 C 4,2 km/h (1 Bft)
29.09.2013 06:25 10,2 C 96 % 1010,6 hPa 0,0 l/m 2,7 km/h (1 Bft) W-NW 292 9,6 C 10,4 C 3,1 km/h (1 Bft)
29.09.2013 06:30 10,2 C 96 % 1010,6 hPa 0,0 l/m 2,4 km/h (1 Bft) N 360 9,6 C 10,4 C 3,2 km/h (1 Bft)
29.09.2013 06:35 10,1 C 96 % 1010,6 hPa 0,0 l/m 2,7 km/h (1 Bft) N 360 9,5 C 10,4 C 3,5 km/h (1 Bft)
29.09.2013 06:40 10,1 C 96 % 1010,6 hPa 0,0 l/m 3,1 km/h (1 Bft) N 360 9,5 C 10,3 C 5,6 km/h (1 Bft)
29.09.2013 06:45 10,1 C 96 % 1010,6 hPa 0,0 l/m 2,9 km/h (1 Bft) W-NW 292 9,5 C 10,3 C 4,0 km/h (1 Bft)
29.09.2013 06:50 10,0 C 96 % 1010,6 hPa 0,0 l/m 2,7 km/h (1 Bft) N-NW 337 9,4 C 10,3 C 3,1 km/h (1 Bft)
29.09.2013 06:55 10,0 C 96 % 1010,6 hPa 0,0 l/m 2,4 km/h (1 Bft) W-NW 292 9,4 C 10,3 C 3,2 km/h (1 Bft)
29.09.2013 07:00 9,9 C 96 % 1010,6 hPa 0,0 l/m 2,9 km/h (1 Bft) N-NW 337 9,3 C 10,2 C 7,1 km/h (2 Bft)
29.09.2013 07:05 9,9 C 96 % 1010,4 hPa 0,0 l/m 4,0 km/h (1 Bft) N 360 9,3 C 10,1 C 6,3 km/h (2 Bft)
29.09.2013 07:10 9,9 C 96 % 1010,4 hPa 0,0 l/m 4,0 km/h (1 Bft) NO 45 9,3 C 10,1 C 3,7 km/h (1 Bft)
29.09.2013 07:15 9,8 C 96 % 1010,4 hPa 0,0 l/m 3,9 km/h (1 Bft) SW 225 9,2 C 10,1 C 3,1 km/h (1 Bft)
29.09.2013 07:20 9,8 C 96 % 1010,4 hPa 0,0 l/m 3,9 km/h (1 Bft) N-NW 337 9,2 C 10,1 C 4,3 km/h (1 Bft)
29.09.2013 07:25 9,8 C 96 % 1010,5 hPa 0,0 l/m 3,4 km/h (1 Bft) W-NW 292 9,2 C 10,0 C 1,6 km/h (1 Bft)
29.09.2013 07:30 9,8 C 96 % 1010,5 hPa 0,0 l/m 3,1 km/h (1 Bft) NW 315 9,2 C 10,0 C 4,2 km/h (1 Bft)
29.09.2013 07:35 9,7 C 96 % 1010,5 hPa 0,0 l/m 2,4 km/h (1 Bft) NO 45 9,1 C 10,0 C 3,9 km/h (1 Bft)
29.09.2013 07:40 9,7 C 96 % 1010,5 hPa 0,0 l/m 2,7 km/h (1 Bft) N-NW 337 9,1 C 10,0 C 3,4 km/h (1 Bft)
29.09.2013 07:45 9,7 C 96 % 1010,4 hPa 0,0 l/m 3,1 km/h (1 Bft) N 360 9,1 C 10,0 C 8,7 km/h (2 Bft)
29.09.2013 07:50 9,7 C 96 % 1010,4 hPa 0,0 l/m 2,6 km/h (1 Bft) N-NW 337 9,1 C 10,0 C 5,1 km/h (1 Bft)
29.09.2013 07:55 9,6 C 96 % 1010,4 hPa 0,0 l/m 2,1 km/h (1 Bft) N-NO 22 9,0 C 10,0 C 4,0 km/h (1 Bft)
29.09.2013 08:00 9,6 C 96 % 1010,4 hPa 0,0 l/m 1,9 km/h (1 Bft) N-NW 337 9,0 C 9,9 C 0,0 km/h (0 Bft)
29.09.2013 08:05 9,4 C 96 % 1010,4 hPa 0,0 l/m 3,1 km/h (1 Bft) W 270 8,8 C 9,8 C 2,9 km/h (1 Bft)
29.09.2013 08:10 9,4 C 96 % 1010,4 hPa 0,0 l/m 3,2 km/h (1 Bft) N-NO 22 8,8 C 9,7 C 3,2 km/h (1 Bft)
29.09.2013 08:15 9,4 C 96 % 1010,4 hPa 0,0 l/m 2,9 km/h (1 Bft) W-NW 292 8,8 C 9,6 C 0,0 km/h (0 Bft)
29.09.2013 08:20 9,4 C 96 % 1010,4 hPa 0,0 l/m 3,1 km/h (1 Bft) W-NW 292 8,8 C 9,6 C 4,8 km/h (1 Bft)
29.09.2013 08:25 9,4 C 96 % 1009,9 hPa 0,0 l/m 2,6 km/h (1 Bft) W-NW 292 8,8 C 9,6 C 1,6 km/h (1 Bft)
29.09.2013 08:30 9,4 C 96 % 1009,9 hPa 0,0 l/m 3,1 km/h (1 Bft) N 360 8,8 C 9,6 C 5,8 km/h (2 Bft)
29.09.2013 08:35 9,4 C 96 % 1009,9 hPa 0,0 l/m 3,4 km/h (1 Bft) N-NW 337 8,8 C 9,6 C 2,7 km/h (1 Bft)
29.09.2013 08:40 9,4 C 96 % 1009,9 hPa 0,0 l/m 3,7 km/h (1 Bft) O 90 8,8 C 9,6 C 1,9 km/h (1 Bft)
29.09.2013 08:45 9,3 C 96 % 1010,4 hPa 0,0 l/m 4,0 km/h (1 Bft) N-NW 337 8,7 C 9,6 C 3,1 km/h (1 Bft)
29.09.2013 08:50 9,2 C 96 % 1010,4 hPa 0,0 l/m 4,3 km/h (1 Bft) NW 315 8,6 C 9,5 C 5,8 km/h (2 Bft)
29.09.2013 08:55 9,2 C 96 % 1010,4 hPa 0,0 l/m 4,0 km/h (1 Bft) N 360 8,6 C 9,5 C 3,4 km/h (1 Bft)
29.09.2013 09:00 9,2 C 96 % 1010,4 hPa 0,0 l/m 4,0 km/h (1 Bft) W-NW 292 8,6 C 9,5 C 5,6 km/h (1 Bft)
29.09.2013 09:05 9,2 C 96 % 1010,4 hPa 0,0 l/m 3,1 km/h (1 Bft) NW 315 8,6 C 9,5 C 2,6 km/h (1 Bft)
29.09.2013 09:10 9,1 C 96 % 1010,4 hPa 0,0 l/m 3,2 km/h (1 Bft) N-NW 337 8,5 C 9,5 C 4,8 km/h (1 Bft)
29.09.2013 09:15 9,0 C 96 % 1010,4 hPa 0,0 l/m 3,4 km/h (1 Bft) NW 315 8,4 C 9,4 C 5,6 km/h (1 Bft)
29.09.2013 09:20 9,0 C 96 % 1010,4 hPa 0,0 l/m 2,7 km/h (1 Bft) N 360 8,4 C 9,3 C 2,7 km/h (1 Bft)
29.09.2013 09:25 8,9 C 96 % 1010,3 hPa 0,0 l/m 3,7 km/h (1 Bft) NW 315 8,3 C 9,3 C 9,5 km/h (2 Bft)
29.09.2013 09:30 8,9 C 96 % 1010,3 hPa 0,0 l/m 3,9 km/h (1 Bft) N-NW 337 8,3 C 9,3 C 5,5 km/h (1 Bft)
29.09.2013 09:35 8,9 C 96 % 1010,3 hPa 0,0 l/m 3,2 km/h (1 Bft) W-NW 292 8,3 C 9,3 C 4,3 km/h (1 Bft)
29.09.2013 09:40 9,0 C 96 % 1010,3 hPa 0,0 l/m 2,9 km/h (1 Bft) NW 315 8,4 C 9,3 C 1,6 km/h (1 Bft)
29.09.2013 09:45 8,9 C 96 % 1010,2 hPa 0,0 l/m 2,9 km/h (1 Bft) N-NW 337 8,3 C 9,3 C 7,4 km/h (2 Bft)
29.09.2013 09:50 8,9 C 96 % 1010,2 hPa 0,0 l/m 3,5 km/h (1 Bft) N-NW 337 8,3 C 9,3 C 6,6 km/h (2 Bft)
29.09.2013 09:55 9,0 C 96 % 1010,2 hPa 0,0 l/m 3,9 km/h (1 Bft) N 360 8,4 C 9,3 C 3,5 km/h (1 Bft)
29.09.2013 10:00 9,2 C 96 % 1010,2 hPa 0,0 l/m 3,2 km/h (1 Bft) W-NW 292 8,6 C 9,5 C 2,3 km/h (1 Bft)
29.09.2013 10:05 9,3 C 96 % 1010,1 hPa 0,0 l/m 3,1 km/h (1 Bft) SO 135 8,7 C 9,6 C 1,8 km/h (1 Bft)
29.09.2013 10:10 9,2 C 96 % 1010,1 hPa 0,0 l/m 3,5 km/h (1 Bft) N-NW 337 8,6 C 9,6 C 5,6 km/h (1 Bft)
29.09.2013 10:15 9,2 C 96 % 1010,1 hPa 0,0 l/m 3,9 km/h (1 Bft) N 360 8,6 C 9,7 C 9,7 km/h (2 Bft)
29.09.2013 10:20 9,3 C 96 % 1010,1 hPa 0,0 l/m 4,2 km/h (1 Bft) N 360 8,7 C 9,7 C 5,8 km/h (2 Bft)
29.09.2013 10:25 9,4 C 96 % 1010,1 hPa 0,0 l/m 4,8 km/h (1 Bft) N 360 8,8 C 9,8 C 10,9 km/h (2 Bft)
29.09.2013 10:30 9,4 C 96 % 1010,1 hPa 0,0 l/m 4,5 km/h (1 Bft) N 360 8,8 C 9,9 C 6,1 km/h (2 Bft)
29.09.2013 10:35 9,4 C 96 % 1010,1 hPa 0,0 l/m 4,8 km/h (1 Bft) N-NW 337 8,8 C 9,9 C 3,7 km/h (1 Bft)
29.09.2013 10:40 9,5 C 96 % 1010,1 hPa 0,0 l/m 4,5 km/h (1 Bft) N 360 8,9 C 10,2 C 6,3 km/h (2 Bft)
29.09.2013 10:45 9,5 C 96 % 1010,0 hPa 0,0 l/m 4,3 km/h (1 Bft) W-NW 292 8,9 C 10,2 C 5,5 km/h (1 Bft)
29.09.2013 10:50 9,5 C 96 % 1010,0 hPa 0,0 l/m 4,7 km/h (1 Bft) N-NW 337 8,9 C 9,8 C 5,3 km/h (1 Bft)
29.09.2013 10:55 9,4 C 96 % 1010,0 hPa 0,0 l/m 4,5 km/h (1 Bft) NW 315 8,8 C 9,9 C 6,3 km/h (2 Bft)
29.09.2013 11:00 9,3 C 95 % 1010,0 hPa 0,0 l/m 4,3 km/h (1 Bft) N 360 8,5 C 9,9 C 5,3 km/h (1 Bft)
29.09.2013 11:05 9,4 C 95 % 1010,1 hPa 0,0 l/m 4,2 km/h (1 Bft) N-NW 337 8,6 C 10,0 C 3,7 km/h (1 Bft)
29.09.2013 11:10 9,3 C 95 % 1010,1 hPa 0,0 l/m 3,7 km/h (1 Bft) N 360 8,5 C 9,9 C 7,6 km/h (2 Bft)
29.09.2013 11:15 9,2 C 95 % 1010,1 hPa 0,0 l/m 3,7 km/h (1 Bft) W-NW 292 8,4 C 9,8 C 6,8 km/h (2 Bft)
29.09.2013 11:20 9,2 C 95 % 1010,1 hPa 0,0 l/m 3,9 km/h (1 Bft) N 360 8,4 C 9,8 C 6,9 km/h (2 Bft)
29.09.2013 11:25 9,3 C 95 % 1010,0 hPa 0,0 l/m 2,9 km/h (1 Bft) W-NW 292 8,5 C 9,7 C 2,1 km/h (1 Bft)
29.09.2013 11:30 9,3 C 95 % 1010,0 hPa 0,0 l/m 2,7 km/h (1 Bft) N-NW 337 8,5 C 9,8 C 5,3 km/h (1 Bft)
29.09.2013 11:35 9,4 C 95 % 1010,0 hPa 0,0 l/m 2,6 km/h (1 Bft) W-NW 292 8,6 C 10,0 C 4,7 km/h (1 Bft)
29.09.2013 11:40 9,3 C 95 % 1010,0 hPa 0,0 l/m 3,7 km/h (1 Bft) N-NW 337 8,5 C 10,0 C 3,9 km/h (1 Bft)
29.09.2013 11:45 9,3 C 95 % 1009,9 hPa 0,0 l/m 4,8 km/h (1 Bft) NW 315 8,5 C 9,7 C 3,7 km/h (1 Bft)
29.09.2013 11:50 9,4 C 95 % 1009,9 hPa 0,0 l/m 3,9 km/h (1 Bft) W-NW 292 8,6 C 9,9 C 5,8 km/h (2 Bft)
29.09.2013 11:55 9,4 C 95 % 1009,9 hPa 0,0 l/m 3,5 km/h (1 Bft) N 360 8,6 C 9,9 C 8,9 km/h (2 Bft)
29.09.2013 12:00 9,4 C 95 % 1009,9 hPa 0,0 l/m 4,2 km/h (1 Bft) N-NW 337 8,6 C 9,9 C 6,8 km/h (2 Bft)
29.09.2013 12:05 9,3 C 95 % 1010,1 hPa 0,0 l/m 3,2 km/h (1 Bft) NO 45 8,5 C 10,0 C 2,7 km/h (1 Bft)
29.09.2013 12:10 9,4 C 95 % 1010,1 hPa 0,0 l/m 3,1 km/h (1 Bft) N 360 8,6 C 10,0 C 5,5 km/h (1 Bft)
29.09.2013 12:15 9,5 C 95 % 1010,1 hPa 0,0 l/m 3,9 km/h (1 Bft) N-NW 337 8,7 C 10,0 C 6,6 km/h (2 Bft)
29.09.2013 12:20 9,5 C 95 % 1010,1 hPa 0,0 l/m 4,0 km/h (1 Bft) N-NW 337 8,7 C 10,0 C 3,2 km/h (1 Bft)
29.09.2013 12:25 9,3 C 95 % 1009,9 hPa 0,0 l/m 3,9 km/h (1 Bft) N-NO 22 8,5 C 10,0 C 4,5 km/h (1 Bft)
29.09.2013 12:30 9,4 C 95 % 1009,9 hPa 0,0 l/m 3,9 km/h (1 Bft) NW 315 8,6 C 10,0 C 4,8 km/h (1 Bft)
29.09.2013 12:35 9,5 C 95 % 1009,9 hPa 0,0 l/m 3,4 km/h (1 Bft) N-NO 22 8,7 C 10,0 C 0,0 km/h (0 Bft)
29.09.2013 12:40 9,5 C 95 % 1009,9 hPa 0,0 l/m 2,9 km/h (1 Bft) S-SW 202 8,7 C 10,0 C 3,7 km/h (1 Bft)
29.09.2013 12:45 9,5 C 95 % 1009,9 hPa 0,0 l/m 3,2 km/h (1 Bft) W-NW 292 8,7 C 10,0 C 6,1 km/h (2 Bft)
29.09.2013 12:50 9,4 C 95 % 1009,9 hPa 0,0 l/m 4,0 km/h (1 Bft) N-NW 337 8,6 C 10,0 C 7,4 km/h (2 Bft)
29.09.2013 12:55 9,5 C 95 % 1009,9 hPa 0,0 l/m 4,5 km/h (1 Bft) N-NW 337 8,7 C 10,2 C 3,7 km/h (1 Bft)
29.09.2013 13:00 9,5 C 95 % 1009,9 hPa 0,0 l/m 4,3 km/h (1 Bft) N-NO 22 8,7 C 10,1 C 3,9 km/h (1 Bft)
29.09.2013 13:05 9,7 C 95 % 1009,7 hPa 0,0 l/m 3,2 km/h (1 Bft) S-SW 202 8,9 C 10,1 C 4,5 km/h (1 Bft)
29.09.2013 13:10 9,5 C 95 % 1009,7 hPa 0,0 l/m 3,5 km/h (1 Bft) N-NW 337 8,7 C 10,1 C 5,0 km/h (1 Bft)
29.09.2013 13:15 9,7 C 95 % 1009,7 hPa 0,0 l/m 3,9 km/h (1 Bft) N 360 8,9 C 10,2 C 2,7 km/h (1 Bft)
29.09.2013 13:20 9,7 C 95 % 1009,7 hPa 0,0 l/m 3,7 km/h (1 Bft) N 360 8,9 C 10,3 C 6,4 km/h (2 Bft)
29.09.2013 13:25 9,8 C 95 % 1009,9 hPa 0,0 l/m 3,7 km/h (1 Bft) N 360 9,0 C 10,3 C 10,3 km/h (2 Bft)
29.09.2013 13:30 9,6 C 95 % 1009,9 hPa 0,0 l/m 3,9 km/h (1 Bft) N-NW 337 8,8 C 10,3 C 5,5 km/h (1 Bft)
29.09.2013 13:35 9,6 C 95 % 1009,9 hPa 0,0 l/m 3,7 km/h (1 Bft) N-NW 337 8,8 C 10,2 C 0,0 km/h (0 Bft)
29.09.2013 13:40 9,7 C 94 % 1009,9 hPa 0,0 l/m 3,2 km/h (1 Bft) W-NW 292 8,8 C 10,2 C 3,5 km/h (1 Bft)
29.09.2013 13:45 9,7 C 94 % 1009,8 hPa 0,0 l/m 3,9 km/h (1 Bft) SW 225 8,8 C 10,2 C 3,9 km/h (1 Bft)
29.09.2013 13:50 9,7 C 94 % 1009,8 hPa 0,0 l/m 5,3 km/h (1 Bft) NW 315 8,8 C 9,8 C 5,0 km/h (1 Bft)
29.09.2013 13:55 9,7 C 94 % 1009,8 hPa 0,0 l/m 5,5 km/h (1 Bft) W-NW 292 8,8 C 9,7 C 11,7 km/h (2 Bft)
29.09.2013 14:00 9,7 C 94 % 1009,8 hPa 0,0 l/m 5,1 km/h (1 Bft) NW 315 8,8 C 9,9 C 2,7 km/h (1 Bft)
29.09.2013 14:05 9,6 C 94 % 1009,7 hPa 0,0 l/m 4,3 km/h (1 Bft) N-NW 337 8,7 C 10,1 C 3,7 km/h (1 Bft)
29.09.2013 14:10 9,7 C 94 % 1009,7 hPa 0,0 l/m 4,2 km/h (1 Bft) N-NW 337 8,8 C 10,1 C 3,7 km/h (1 Bft)
29.09.2013 14:15 9,7 C 94 % 1009,7 hPa 0,0 l/m 3,5 km/h (1 Bft) N 360 8,8 C 10,2 C 5,8 km/h (2 Bft)
29.09.2013 14:20 9,7 C 94 % 1009,7 hPa 0,0 l/m 3,5 km/h (1 Bft) N-NW 337 8,8 C 10,2 C 2,9 km/h (1 Bft)
29.09.2013 14:25 9,8 C 94 % 1009,5 hPa 0,0 l/m 3,4 km/h (1 Bft) N-NW 337 8,9 C 10,2 C 3,1 km/h (1 Bft)
29.09.2013 14:30 9,8 C 94 % 1009,5 hPa 0,0 l/m 3,7 km/h (1 Bft) N-NW 337 8,9 C 10,3 C 8,9 km/h (2 Bft)
29.09.2013 14:35 9,6 C 94 % 1009,5 hPa 0,0 l/m 5,3 km/h (1 Bft) N-NW 337 8,7 C 9,9 C 7,4 km/h (2 Bft)
29.09.2013 14:40 9,7 C 94 % 1009,5 hPa 0,0 l/m 5,8 km/h (2 Bft) W-NW 292 8,8 C 9,6 C 8,2 km/h (2 Bft)
29.09.2013 14:45 9,7 C 94 % 1009,4 hPa 0,0 l/m 5,5 km/h (1 Bft) N-NW 337 8,8 C 9,7 C 7,1 km/h (2 Bft)
29.09.2013 14:50 9,6 C 94 % 1009,4 hPa 0,0 l/m 5,5 km/h (1 Bft) NW 315 8,7 C 9,7 C 7,1 km/h (2 Bft)
29.09.2013 14:55 9,6 C 94 % 1009,4 hPa 0,0 l/m 5,0 km/h (1 Bft) W 270 8,7 C 9,9 C 3,4 km/h (1 Bft)
29.09.2013 15:00 9,6 C 94 % 1009,4 hPa 0,0 l/m 3,9 km/h (1 Bft) S 180 8,7 C 10,0 C 0,0 km/h (0 Bft)
29.09.2013 15:05 9,5 C 94 % 1009,5 hPa 0,0 l/m 4,7 km/h (1 Bft) O-SO 112 8,6 C 9,8 C 13,4 km/h (3 Bft)
29.09.2013 15:10 9,4 C 94 % 1009,5 hPa 0,0 l/m 5,3 km/h (1 Bft) N 360 8,5 C 9,5 C 7,4 km/h (2 Bft)
29.09.2013 15:15 9,5 C 94 % 1009,5 hPa 0,0 l/m 5,0 km/h (1 Bft) N-NO 22 8,6 C 9,6 C 11,9 km/h (2 Bft)
29.09.2013 15:20 9,6 C 94 % 1009,5 hPa 0,0 l/m 4,8 km/h (1 Bft) NO 45 8,7 C 9,7 C 7,9 km/h (2 Bft)
29.09.2013 15:25 9,5 C 94 % 1009,4 hPa 0,0 l/m 5,0 km/h (1 Bft) O 90 8,6 C 9,6 C 4,5 km/h (1 Bft)
29.09.2013 15:30 9,4 C 94 % 1009,4 hPa 0,0 l/m 5,6 km/h (1 Bft) W-NW 292 8,5 C 9,4 C 8,5 km/h (2 Bft)
29.09.2013 15:35 9,5 C 94 % 1009,4 hPa 0,0 l/m 5,1 km/h (1 Bft) O-SO 112 8,6 C 9,6 C 10,3 km/h (2 Bft)
29.09.2013 15:40 9,5 C 94 % 1009,4 hPa 0,0 l/m 4,7 km/h (1 Bft) W-NW 292 8,6 C 9,7 C 5,1 km/h (1 Bft)
29.09.2013 15:45 9,4 C 94 % 1009,5 hPa 0,0 l/m 5,0 km/h (1 Bft) O-SO 112 8,5 C 9,5 C 1,9 km/h (1 Bft)
29.09.2013 15:50 9,5 C 94 % 1009,5 hPa 0,0 l/m 4,5 km/h (1 Bft) N-NW 337 8,6 C 9,8 C 4,8 km/h (1 Bft)
29.09.2013 15:55 9,5 C 94 % 1009,5 hPa 0,0 l/m 4,3 km/h (1 Bft) N 360 8,6 C 9,8 C 5,5 km/h (1 Bft)
29.09.2013 16:00 9,4 C 94 % 1009,5 hPa 0,0 l/m 4,7 km/h (1 Bft) W-NW 292 8,5 C 9,6 C 6,9 km/h (2 Bft)
29.09.2013 16:05 9,5 C 94 % 1009,2 hPa 0,0 l/m 3,5 km/h (1 Bft) N 360 8,6 C 9,8 C 5,5 km/h (1 Bft)
29.09.2013 16:10 9,5 C 94 % 1009,2 hPa 0,0 l/m 3,5 km/h (1 Bft) NW 315 8,6 C 9,8 C 3,1 km/h (1 Bft)
29.09.2013 16:15 9,4 C 94 % 1009,2 hPa 0,0 l/m 4,7 km/h (1 Bft) W-NW 292 8,5 C 9,6 C 14,8 km/h (3 Bft)
29.09.2013 16:20 9,4 C 94 % 1009,2 hPa 0,0 l/m 5,8 km/h (2 Bft) N-NW 337 8,5 C 9,2 C 12,1 km/h (2 Bft)
29.09.2013 16:25 9,3 C 94 % 1009,2 hPa 0,0 l/m 6,8 km/h (2 Bft) N-NW 337 8,4 C 8,5 C 5,5 km/h (1 Bft)
29.09.2013 16:30 9,3 C 94 % 1009,2 hPa 0,0 l/m 5,6 km/h (1 Bft) NO 45 8,4 C 9,1 C 4,7 km/h (1 Bft)
29.09.2013 16:35 9,3 C 94 % 1009,2 hPa 0,0 l/m 4,5 km/h (1 Bft) N 360 8,4 C 9,4 C 7,1 km/h (2 Bft)
29.09.2013 16:40 9,3 C 94 % 1009,2 hPa 0,0 l/m 4,3 km/h (1 Bft) W-NW 292 8,4 C 9,5 C 7,9 km/h (2 Bft)
29.09.2013 16:45 9,3 C 94 % 1009,1 hPa 0,0 l/m 4,0 km/h (1 Bft) N-NO 22 8,4 C 9,6 C 7,4 km/h (2 Bft)
29.09.2013 16:50 9,3 C 94 % 1009,1 hPa 0,0 l/m 4,2 km/h (1 Bft) N-NW 337 8,4 C 9,6 C 6,1 km/h (2 Bft)
29.09.2013 16:55 9,3 C 94 % 1009,1 hPa 0,0 l/m 4,7 km/h (1 Bft) O 90 8,4 C 9,4 C 7,2 km/h (2 Bft)
29.09.2013 17:00 9,2 C 94 % 1009,1 hPa 0,0 l/m 4,0 km/h (1 Bft) NW 315 8,3 C 9,5 C 5,0 km/h (1 Bft)
29.09.2013 17:05 9,1 C 94 % 1009,1 hPa 0,0 l/m 4,8 km/h (1 Bft) W-NW 292 8,2 C 9,2 C 8,0 km/h (2 Bft)
29.09.2013 17:10 9,1 C 94 % 1009,1 hPa 0,0 l/m 6,1 km/h (2 Bft) N 360 8,2 C 8,7 C 7,6 km/h (2 Bft)
29.09.2013 17:15 9,0 C 94 % 1009,1 hPa 0,0 l/m 6,3 km/h (2 Bft) W-NW 292 8,1 C 8,6 C 6,4 km/h (2 Bft)
29.09.2013 17:20 8,9 C 94 % 1009,1 hPa 0,0 l/m 5,5 km/h (1 Bft) W-NW 292 8,0 C 8,8 C 6,4 km/h (2 Bft)
29.09.2013 17:25 8,9 C 94 % 1009,1 hPa 0,0 l/m 5,1 km/h (1 Bft) NW 315 8,0 C 8,8 C 7,7 km/h (2 Bft)
29.09.2013 17:30 8,9 C 94 % 1009,1 hPa 0,0 l/m 4,3 km/h (1 Bft) O-SO 112 8,0 C 8,9 C 9,5 km/h (2 Bft)
29.09.2013 17:35 8,8 C 94 % 1009,1 hPa 0,0 l/m 4,0 km/h (1 Bft) O-NO 67 7,9 C 9,1 C 3,7 km/h (1 Bft)
29.09.2013 17:40 8,7 C 94 % 1009,1 hPa 0,0 l/m 4,7 km/h (1 Bft) W 270 7,8 C 8,8 C 7,9 km/h (2 Bft)
29.09.2013 17:45 8,7 C 94 % 1009,1 hPa 0,0 l/m 5,1 km/h (1 Bft) W-NW 292 7,8 C 8,6 C 1,6 km/h (1 Bft)
29.09.2013 17:50 8,7 C 94 % 1009,1 hPa 0,0 l/m 4,5 km/h (1 Bft) W-SW 247 7,8 C 8,8 C 7,6 km/h (2 Bft)
29.09.2013 17:55 8,7 C 94 % 1009,1 hPa 0,0 l/m 4,5 km/h (1 Bft) N-NO 22 7,8 C 8,7 C 8,4 km/h (2 Bft)
29.09.2013 18:00 8,7 C 94 % 1009,1 hPa 0,0 l/m 5,0 km/h (1 Bft) N 360 7,8 C 8,5 C 6,3 km/h (2 Bft)
29.09.2013 18:05 8,6 C 94 % 1009,2 hPa 0,0 l/m 3,7 km/h (1 Bft) N 360 7,7 C 8,9 C 2,7 km/h (1 Bft)
29.09.2013 18:10 8,7 C 95 % 1009,2 hPa 0,0 l/m 4,0 km/h (1 Bft) N 360 7,9 C 8,8 C 7,6 km/h (2 Bft)
29.09.2013 18:15 8,6 C 95 % 1009,2 hPa 0,0 l/m 4,8 km/h (1 Bft) N 360 7,8 C 8,4 C 6,0 km/h (2 Bft)
29.09.2013 18:20 8,6 C 95 % 1009,2 hPa 0,0 l/m 5,0 km/h (1 Bft) SW 225 7,8 C 8,4 C 1,9 km/h (1 Bft)
29.09.2013 18:25 8,6 C 95 % 1009,1 hPa 0,0 l/m 3,2 km/h (1 Bft) NW 315 7,8 C 8,8 C 3,4 km/h (1 Bft)
29.09.2013 18:30 8,6 C 95 % 1009,1 hPa 0,0 l/m 2,3 km/h (1 Bft) N-NO 22 7,8 C 8,8 C 2,4 km/h (1 Bft)
29.09.2013 18:35 8,6 C 95 % 1009,1 hPa 0,0 l/m 2,3 km/h (1 Bft) N-NW 337 7,8 C 8,7 C 7,7 km/h (2 Bft)
29.09.2013 18:40 8,6 C 95 % 1009,1 hPa 0,0 l/m 2,9 km/h (1 Bft) N-NW 337 7,8 C 8,7 C 3,9 km/h (1 Bft)
29.09.2013 18:45 8,5 C 95 % 1009,2 hPa 0,0 l/m 4,2 km/h (1 Bft) N-NW 337 7,7 C 8,6 C 6,9 km/h (2 Bft)
29.09.2013 18:50 8,5 C 95 % 1009,2 hPa 0,0 l/m 4,3 km/h (1 Bft) N-NO 22 7,7 C 8,5 C 6,8 km/h (2 Bft)
29.09.2013 18:55 8,5 C 95 % 1009,2 hPa 0,0 l/m 4,7 km/h (1 Bft) N-NW 337 7,7 C 8,4 C 6,4 km/h (2 Bft)
29.09.2013 19:00 8,5 C 95 % 1009,2 hPa 0,0 l/m 4,0 km/h (1 Bft) SW 225 7,7 C 8,7 C 5,0 km/h (1 Bft)
29.09.2013 19:05 8,4 C 94 % 1009,3 hPa 0,0 l/m 3,7 km/h (1 Bft) N-NO 22 7,5 C 8,6 C 6,0 km/h (2 Bft)
29.09.2013 19:10 8,4 C 94 % 1009,3 hPa 0,0 l/m 2,9 km/h (1 Bft) NO 45 7,5 C 8,6 C 2,9 km/h (1 Bft)
29.09.2013 19:15 8,4 C 94 % 1009,3 hPa 0,0 l/m 2,9 km/h (1 Bft) O-SO 112 7,5 C 8,6 C 9,2 km/h (2 Bft)
29.09.2013 19:20 8,4 C 94 % 1009,3 hPa 0,0 l/m 3,9 km/h (1 Bft) N-NW 337 7,5 C 8,6 C 7,7 km/h (2 Bft)
29.09.2013 19:25 8,4 C 94 % 1009,3 hPa 0,0 l/m 4,2 km/h (1 Bft) NO 45 7,5 C 8,4 C 6,4 km/h (2 Bft)
29.09.2013 19:30 8,4 C 94 % 1009,3 hPa 0,0 l/m 3,7 km/h (1 Bft) N-NO 22 7,5 C 8,6 C 3,7 km/h (1 Bft)
29.09.2013 19:35 8,4 C 94 % 1009,3 hPa 0,0 l/m 3,7 km/h (1 Bft) NW 315 7,5 C 8,6 C 3,7 km/h (1 Bft)
29.09.2013 19:40 8,4 C 94 % 1009,3 hPa 0,0 l/m 3,5 km/h (1 Bft) N 360 7,5 C 8,6 C 2,3 km/h (1 Bft)
29.09.2013 19:45 8,3 C 94 % 1009,4 hPa 0,0 l/m 2,6 km/h (1 Bft) NO 45 7,4 C 8,6 C 5,1 km/h (1 Bft)
29.09.2013 19:50 8,3 C 94 % 1009,4 hPa 0,0 l/m 2,6 km/h (1 Bft) NO 45 7,4 C 8,6 C 4,5 km/h (1 Bft)
29.09.2013 19:55 8,3 C 94 % 1009,4 hPa 0,0 l/m 3,4 km/h (1 Bft) N-NO 22 7,4 C 8,6 C 3,4 km/h (1 Bft)
29.09.2013 20:00 8,3 C 94 % 1009,4 hPa 0,0 l/m 3,7 km/h (1 Bft) N 360 7,4 C 8,5 C 10,0 km/h (2 Bft)
29.09.2013 20:05 8,3 C 94 % 1009,1 hPa 0,0 l/m 2,9 km/h (1 Bft) W-NW 292 7,4 C 8,5 C 1,9 km/h (1 Bft)
29.09.2013 20:10 8,3 C 94 % 1009,1 hPa 0,0 l/m 2,4 km/h (1 Bft) N 360 7,4 C 8,5 C 3,5 km/h (1 Bft)
29.09.2013 20:15 8,3 C 94 % 1009,1 hPa 0,0 l/m 1,6 km/h (1 Bft) NO 45 7,4 C 8,5 C 3,1 km/h (1 Bft)
29.09.2013 20:20 8,2 C 94 % 1009,1 hPa 0,0 l/m 1,9 km/h (1 Bft) N-NW 337 7,3 C 8,4 C 2,9 km/h (1 Bft)
29.09.2013 20:25 8,2 C 94 % 1009,2 hPa 0,0 l/m 1,9 km/h (1 Bft) N-NW 337 7,3 C 8,4 C 3,1 km/h (1 Bft)
29.09.2013 20:30 8,2 C 94 % 1009,2 hPa 0,0 l/m 1,6 km/h (1 Bft) O 90 7,3 C 8,4 C 1,9 km/h (1 Bft)
29.09.2013 20:35 8,2 C 94 % 1009,2 hPa 0,0 l/m 1,9 km/h (1 Bft) NO 45 7,3 C 8,4 C 5,1 km/h (1 Bft)
29.09.2013 20:40 8,2 C 94 % 1009,2 hPa 0,0 l/m 2,1 km/h (1 Bft) N-NO 22 7,3 C 8,4 C 0,0 km/h (0 Bft)
29.09.2013 20:45 8,2 C 94 % 1009,3 hPa 0,0 l/m 2,4 km/h (1 Bft) N-NO 22 7,3 C 8,4 C 4,8 km/h (1 Bft)
29.09.2013 20:50 8,2 C 94 % 1009,3 hPa 0,0 l/m 2,6 km/h (1 Bft) N-NO 22 7,3 C 8,4 C 2,6 km/h (1 Bft)
29.09.2013 20:55 8,2 C 94 % 1009,3 hPa 0,0 l/m 2,1 km/h (1 Bft) NW 315 7,3 C 8,4 C 0,0 km/h (0 Bft)
29.09.2013 21:00 8,2 C 94 % 1009,3 hPa 0,0 l/m 1,8 km/h (1 Bft) NW 315 7,3 C 8,4 C 3,1 km/h (1 Bft)
29.09.2013 21:05 8,2 C 94 % 1009,4 hPa 0,0 l/m 2,7 km/h (1 Bft) W-NW 292 7,3 C 8,4 C 3,7 km/h (1 Bft)
29.09.2013 21:10 8,2 C 94 % 1009,4 hPa 0,0 l/m 2,9 km/h (1 Bft) NO 45 7,3 C 8,4 C 2,9 km/h (1 Bft)
29.09.2013 21:15 8,2 C 94 % 1009,4 hPa 0,0 l/m 2,9 km/h (1 Bft) N-NW 337 7,3 C 8,4 C 5,5 km/h (1 Bft)
29.09.2013 21:20 8,1 C 94 % 1009,4 hPa 0,0 l/m 3,2 km/h (1 Bft) O 90 7,2 C 8,3 C 4,3 km/h (1 Bft)
29.09.2013 21:25 8,0 C 94 % 1009,4 hPa 0,0 l/m 3,4 km/h (1 Bft) NO 45 7,1 C 8,2 C 2,1 km/h (1 Bft)
29.09.2013 21:30 8,0 C 94 % 1009,4 hPa 0,0 l/m 3,1 km/h (1 Bft) N 360 7,1 C 8,2 C 6,9 km/h (2 Bft)
29.09.2013 21:35 7,9 C 95 % 1009,4 hPa 0,0 l/m 2,7 km/h (1 Bft) N 360 7,1 C 8,1 C 0,0 km/h (0 Bft)
29.09.2013 21:40 7,9 C 95 % 1009,4 hPa 0,0 l/m 2,4 km/h (1 Bft) W-NW 292 7,1 C 8,1 C 1,6 km/h (1 Bft)
29.09.2013 21:45 7,9 C 95 % 1009,5 hPa 0,0 l/m 2,1 km/h (1 Bft) SW 225 7,1 C 8,1 C 2,7 km/h (1 Bft)
29.09.2013 21:50 7,9 C 95 % 1009,5 hPa 0,0 l/m 2,1 km/h (1 Bft) N-NW 337 7,1 C 8,0 C 4,3 km/h (1 Bft)
29.09.2013 21:55 7,9 C 95 % 1009,5 hPa 0,0 l/m 1,6 km/h (1 Bft) N-NO 22 7,1 C 8,0 C 0,0 km/h (0 Bft)
29.09.2013 22:00 7,9 C 95 % 1009,5 hPa 0,0 l/m 1,6 km/h (1 Bft) N-NW 337 7,1 C 8,0 C 2,1 km/h (1 Bft)
29.09.2013 22:05 7,8 C 95 % 1009,3 hPa 0,0 l/m 1,0 km/h (0 Bft) N-NW 337 7,0 C 8,0 C 1,9 km/h (1 Bft)
29.09.2013 22:10 7,8 C 95 % 1009,3 hPa 0,0 l/m 1,0 km/h (0 Bft) N-NW 337 7,0 C 7,9 C 1,8 km/h (1 Bft)
29.09.2013 22:15 7,8 C 95 % 1009,3 hPa 0,0 l/m 1,6 km/h (1 Bft) N-NW 337 7,0 C 7,9 C 2,3 km/h (1 Bft)
29.09.2013 22:20 7,8 C 95 % 1009,3 hPa 0,0 l/m 1,6 km/h (1 Bft) N-NO 22 7,0 C 7,9 C 2,4 km/h (1 Bft)
29.09.2013 22:25 7,8 C 95 % 1009,1 hPa 0,0 l/m 1,1 km/h (1 Bft) N-NO 22 7,0 C 7,9 C 0,0 km/h (0 Bft)
29.09.2013 22:30 7,8 C 95 % 1009,1 hPa 0,0 l/m 1,0 km/h (0 Bft) N-NW 337 7,0 C 7,9 C 1,6 km/h (1 Bft)
29.09.2013 22:35 7,8 C 95 % 1009,1 hPa 0,0 l/m 1,0 km/h (0 Bft) N 360 7,0 C 7,9 C 0,0 km/h (0 Bft)
29.09.2013 22:40 7,8 C 95 % 1009,1 hPa 0,0 l/m 1,3 km/h (1 Bft) N-NW 337 7,0 C 7,9 C 2,3 km/h (1 Bft)
29.09.2013 22:45 7,7 C 95 % 1009,2 hPa 0,0 l/m 1,6 km/h (1 Bft) SO 135 7,0 C 7,9 C 1,8 km/h (1 Bft)
29.09.2013 22:50 7,7 C 95 % 1009,2 hPa 0,0 l/m 1,3 km/h (1 Bft) W-NW 292 7,0 C 7,9 C 0,0 km/h (0 Bft)
29.09.2013 22:55 7,7 C 95 % 1009,2 hPa 0,0 l/m 1,0 km/h (0 Bft) SO 135 7,0 C 7,9 C 0,0 km/h (0 Bft)
29.09.2013 23:00 7,7 C 95 % 1009,2 hPa 0,0 l/m 1,1 km/h (1 Bft) W 270 7,0 C 7,9 C 0,0 km/h (0 Bft)
29.09.2013 23:05 7,7 C 95 % 1009,1 hPa 0,0 l/m 1,3 km/h (1 Bft) NO 45 7,0 C 7,9 C 1,8 km/h (1 Bft)
29.09.2013 23:10 7,7 C 95 % 1009,1 hPa 0,0 l/m 1,3 km/h (1 Bft) NO 45 7,0 C 7,8 C 0,0 km/h (0 Bft)
29.09.2013 23:15 7,7 C 95 % 1009,1 hPa 0,0 l/m 0,8 km/h (0 Bft) NO 45 7,0 C 7,8 C 0,0 km/h (0 Bft)
29.09.2013 23:20 7,7 C 95 % 1009,1 hPa 0,0 l/m 1,3 km/h (1 Bft) W 270 7,0 C 7,8 C 0,0 km/h (0 Bft)
29.09.2013 23:25 7,6 C 95 % 1009,1 hPa 0,0 l/m 1,6 km/h (1 Bft) N-NO 22 6,9 C 7,8 C 5,8 km/h (2 Bft)
29.09.2013 23:30 7,6 C 95 % 1009,1 hPa 0,0 l/m 1,3 km/h (1 Bft) N-NW 337 6,9 C 7,8 C 4,3 km/h (1 Bft)
29.09.2013 23:35 7,6 C 95 % 1009,1 hPa 0,0 l/m 2,3 km/h (1 Bft) NW 315 6,9 C 7,8 C 3,2 km/h (1 Bft)
29.09.2013 23:40 7,6 C 95 % 1009,1 hPa 0,0 l/m 2,6 km/h (1 Bft) N-NW 337 6,9 C 7,8 C 2,4 km/h (1 Bft)
29.09.2013 23:45 7,6 C 95 % 1009,1 hPa 0,0 l/m 2,3 km/h (1 Bft) NW 315 6,9 C 7,8 C 3,7 km/h (1 Bft)
29.09.2013 23:50 7,6 C 95 % 1009,1 hPa 0,0 l/m 2,1 km/h (1 Bft) W 270 6,9 C 7,8 C 0,0 km/h (0 Bft)
29.09.2013 23:55 7,6 C 95 % 1009,1 hPa 0,0 l/m 1,9 km/h (1 Bft) W-SW 247 6,9 C 7,7 C 3,2 km/h (1 Bft)
_ Min-Zeit 23:55 21:30 23:55 - 03:15 - - 23:55 23:55 23:50
Minimum _ 7,6 C 94 % 1009,1 hPa - 0,2 km/h (0 Bft) - - 6,9 C 7,7 C 0,0 km/h (0 Bft)
_ Max-Zeit 01:45 10:55 01:00 23:55 16:25 - - 01:45 01:50 16:15
Maximum _ 11,9 C 96 % 1012,5 hPa 0,0 l/m 6,8 km/h
N-NW (2 Bft)
- - 11,3 C 12,1 C 14,8 km/h
W-NW (3 Bft)
Durchschnitt _ 9,6 C 95 % 1010,2 hPa #0,0 l/m 3,1 km/h (1 Bft) N-NW - 8,9 C 9,9 C 4,1 km/h (1 Bft)